project_name,platform_name,Date_(yyyymmdd),Time_(hh24miss),beacon_ID,latitude_DD,longitude_DD,altitude_m,altitude_result_value_type,speed_m_s,speed_result_value_type,direction_degrees,direction_result_value_type,fix,sat
BaySys,Amundsen,2008-03-06,00:35:59,300034012819300,71.0592,-123.4781,29.3511,Actual,,Calculated,354.7300,Calculated,1,7
BaySys,Amundsen,2008-03-06,02:33:37,300034012819300,71.0599,-123.4795,-2.9887,Actual,,Calculated,5.1800,Calculated,1,5
BaySys,Amundsen,2008-03-06,04:34:06,300034012819300,71.0605,-123.4803,-18.3091,Actual,,Calculated,324.2500,Calculated,1,6
BaySys,Amundsen,2008-03-06,06:33:46,300034012819300,71.0637,-123.4792,2.3412,Actual,,Calculated,23.7700,Calculated,1,6
BaySys,Amundsen,2008-03-06,08:33:56,300034012819300,71.0656,-123.4791,-9.8776,Actual,,Calculated,38.0900,Calculated,1,7
BaySys,Amundsen,2008-03-06,10:33:47,300034012819300,71.0670,-123.4824,-13.4051,Actual,,Calculated,351.6700,Calculated,1,7
BaySys,Amundsen,2008-03-06,12:34:29,300034012819300,71.0739,-123.5049,3.0251,Actual,,Calculated,310.7700,Calculated,1,10
BaySys,Amundsen,2008-03-06,14:33:55,300034012819300,71.0826,-123.5359,-2.5524,Actual,,Calculated,306.3100,Calculated,1,8
BaySys,Amundsen,2008-03-06,16:33:53,300034012819300,71.0902,-123.5578,-4.8174,Actual,,Calculated,305.3500,Calculated,1,11
BaySys,Amundsen,2008-03-06,18:34:02,300034012819300,71.0947,-123.5684,0.1675,Actual,,Calculated,338.5400,Calculated,1,7
BaySys,Amundsen,2008-03-06,20:34:29,300034012819300,71.0951,-123.5691,-23.1799,Actual,,Calculated,253.5200,Calculated,1,6
BaySys,Amundsen,2008-03-06,22:34:10,300034012819300,71.0938,-123.5713,-9.1583,Actual,,Calculated,208.7100,Calculated,1,7
BaySys,Amundsen,2008-03-07,00:34:35,300034012819300,71.0870,-123.5710,-10.0381,Actual,,Calculated,267.3100,Calculated,1,11
BaySys,Amundsen,2008-03-07,02:34:26,300034012819300,71.0773,-123.5688,17.6418,Actual,,Calculated,147.1400,Calculated,1,6
BaySys,Amundsen,2008-03-07,04:34:11,300034012819300,71.0647,-123.5678,10.2807,Actual,,Calculated,188.4900,Calculated,1,8
BaySys,Amundsen,2008-03-07,06:34:14,300034012819300,71.0522,-123.5665,6.0513,Actual,,Calculated,169.2800,Calculated,1,8
BaySys,Amundsen,2008-03-07,08:34:35,300034012819300,71.0404,-123.5573,-2.4968,Actual,,Calculated,176.2600,Calculated,1,6
BaySys,Amundsen,2008-03-07,16:36:14,300034012819300,71.0127,-123.5076,-17.3254,Actual,,Calculated,72.0900,Calculated,1,11
BaySys,Amundsen,2008-03-07,18:35:55,300034012819300,71.0098,-123.4958,-7.0956,Actual,,Calculated,162.0600,Calculated,1,9
BaySys,Amundsen,2008-03-07,20:36:23,300034012819300,71.0039,-123.4832,-7.8003,Actual,,Calculated,43.8800,Calculated,1,10
BaySys,Amundsen,2008-03-07,22:36:02,300034012819300,70.9980,-123.4742,-4.7091,Actual,,Calculated,165.6800,Calculated,1,8
BaySys,Amundsen,2008-03-08,00:36:01,300034012819300,70.9966,-123.4737,-12.1408,Actual,,Calculated,346.8400,Calculated,1,9
BaySys,Amundsen,2008-03-08,02:36:35,300034012819300,70.9976,-123.4808,-13.4172,Actual,,Calculated,264.9300,Calculated,1,8
BaySys,Amundsen,2008-03-08,04:36:05,300034012819300,71.0002,-123.4949,13.6085,Actual,,Calculated,312.2900,Calculated,1,10
BaySys,Amundsen,2008-03-08,06:36:35,300034012819300,71.0033,-123.5257,1.4512,Actual,,Calculated,26.7500,Calculated,1,9
BaySys,Amundsen,2008-03-08,08:36:24,300034012819300,71.0037,-123.5591,-10.2707,Actual,,Calculated,261.4700,Calculated,1,8
BaySys,Amundsen,2008-03-08,10:36:12,300034012819300,71.0028,-123.5942,0.4846,Actual,,Calculated,275.2000,Calculated,1,8
BaySys,Amundsen,2008-03-08,12:36:35,300034012819300,71.0032,-123.6339,0.3134,Actual,,Calculated,244.5100,Calculated,1,11
BaySys,Amundsen,2008-03-08,14:36:38,300034012819300,71.0050,-123.6801,-2.4662,Actual,,Calculated,266.8800,Calculated,1,7
BaySys,Amundsen,2008-03-08,16:36:22,300034012819300,71.0073,-123.7240,-6.0083,Actual,,Calculated,280.0000,Calculated,1,11
BaySys,Amundsen,2008-03-08,18:36:53,300034012819300,71.0097,-123.7715,-9.1288,Actual,,Calculated,8.8300,Calculated,1,9
BaySys,Amundsen,2008-03-08,20:36:53,300034012819300,71.0124,-123.8185,-9.3580,Actual,,Calculated,279.3400,Calculated,1,10
BaySys,Amundsen,2008-03-08,22:37:05,300034012819300,71.0130,-123.8499,-4.1142,Actual,,Calculated,254.6200,Calculated,1,9
BaySys,Amundsen,2008-03-09,00:36:54,300034012819300,71.0127,-123.8656,-6.8761,Actual,,Calculated,249.6200,Calculated,1,11
BaySys,Amundsen,2008-03-09,02:36:42,300034012819300,71.0268,-123.8742,3663.4110,Actual,,Calculated,2.5900,Calculated,1,11
BaySys,Amundsen,2008-03-09,04:36:28,300034012819300,71.0213,-123.9004,21.6221,Actual,,Calculated,350.9500,Calculated,1,11
BaySys,Amundsen,2008-03-09,06:36:59,300034012819300,71.0256,-123.9098,-3.7340,Actual,,Calculated,248.1300,Calculated,1,10
BaySys,Amundsen,2008-03-09,08:37:05,300034012819300,71.0274,-123.9145,-9.5811,Actual,,Calculated,7.5300,Calculated,1,9
BaySys,Amundsen,2008-03-09,10:37:05,300034012819300,71.0265,-123.9144,-8.9427,Actual,,Calculated,217.8100,Calculated,1,10
BaySys,Amundsen,2008-03-09,12:37:00,300034012819300,71.0257,-123.9132,-0.3820,Actual,,Calculated,141.2800,Calculated,1,9
BaySys,Amundsen,2008-03-09,14:36:42,300034012819300,71.0266,-123.9136,154.2163,Actual,,Calculated,63.4500,Calculated,1,7
BaySys,Amundsen,2008-03-09,16:37:05,300034012819300,71.0279,-123.9178,10.6430,Actual,,Calculated,215.7600,Calculated,1,8
BaySys,Amundsen,2008-03-09,18:36:55,300034012819300,71.0297,-123.9224,5.6301,Actual,,Calculated,59.9400,Calculated,1,5
BaySys,Amundsen,2008-03-09,20:37:23,300034012819300,71.0299,-123.9255,-14.4498,Actual,,Calculated,98.2600,Calculated,1,10
BaySys,Amundsen,2008-03-09,22:36:54,300034012819300,71.0299,-123.9266,-12.4619,Actual,,Calculated,230.3500,Calculated,1,9
BaySys,Amundsen,2008-03-10,00:37:29,300034012819300,71.0299,-123.9267,-6.3257,Actual,,Calculated,169.3000,Calculated,1,11
BaySys,Amundsen,2008-03-10,02:37:35,300034012819300,71.0299,-123.9267,7.0616,Actual,,Calculated,253.1400,Calculated,1,12
BaySys,Amundsen,2008-03-10,04:37:29,300034012819300,71.0303,-123.9284,24.6932,Actual,,Calculated,271.4600,Calculated,1,10
BaySys,Amundsen,2008-03-10,06:36:56,300034012819300,71.0319,-123.9386,-3.6780,Actual,,Calculated,50.6300,Calculated,1,9
BaySys,Amundsen,2008-03-10,08:37:35,300034012819300,71.0319,-123.9391,-5.8070,Actual,,Calculated,287.0900,Calculated,1,10
BaySys,Amundsen,2008-03-10,10:37:26,300034012819300,71.0319,-123.9390,-4.6384,Actual,,Calculated,228.1300,Calculated,1,8
BaySys,Amundsen,2008-03-10,12:37:08,300034012819300,71.0319,-123.9390,-2.1966,Actual,,Calculated,252.7800,Calculated,1,9
BaySys,Amundsen,2008-03-10,14:37:35,300034012819300,71.0319,-123.9390,-0.0966,Actual,,Calculated,205.4300,Calculated,1,8
BaySys,Amundsen,2008-03-10,16:37:12,300034012819300,71.0286,-123.9441,-6.5372,Actual,,Calculated,78.8500,Calculated,1,12
BaySys,Amundsen,2008-03-10,18:37:09,300034012819300,71.0286,-123.9441,-12.0315,Actual,,Calculated,250.0500,Calculated,1,11
BaySys,Amundsen,2008-03-10,20:37:30,300034012819300,71.0286,-123.9441,-7.2105,Actual,,Calculated,95.7500,Calculated,1,7
BaySys,Amundsen,2008-03-10,22:37:59,300034012819300,71.0284,-123.9437,-9.7491,Actual,,Calculated,41.5400,Calculated,1,10
BaySys,Amundsen,2008-03-11,00:37:23,300034012819300,71.0281,-123.9423,-8.7336,Actual,,Calculated,110.0000,Calculated,1,9
BaySys,Amundsen,2008-03-11,02:38:05,300034012819300,71.0273,-123.9396,-5.8130,Actual,,Calculated,66.0800,Calculated,1,12
BaySys,Amundsen,2008-03-11,04:37:59,300034012819300,71.0272,-123.9391,-15.5082,Actual,,Calculated,139.4600,Calculated,1,11
BaySys,Amundsen,2008-03-11,06:47:20,300034012819300,71.0273,-123.9390,25.1544,Actual,,Calculated,63.7900,Calculated,1,9
BaySys,Amundsen,2008-03-11,08:47:35,300034012819300,71.0272,-123.9392,-15.7596,Actual,,Calculated,285.2500,Calculated,1,6
BaySys,Amundsen,2008-03-11,10:47:33,300034012819300,71.0271,-123.9390,31.6179,Actual,,Calculated,203.8800,Calculated,1,6
BaySys,Amundsen,2008-03-11,12:48:05,300034012819300,71.0264,-123.9370,-6.2380,Actual,,Calculated,158.6100,Calculated,1,10
BaySys,Amundsen,2008-03-11,16:47:52,300034012819300,71.0243,-123.9314,-7.5516,Actual,,Calculated,183.2200,Calculated,1,11
BaySys,Amundsen,2008-03-11,18:47:40,300034012819300,71.0232,-123.9303,-6.6112,Actual,,Calculated,86.2800,Calculated,1,11
BaySys,Amundsen,2008-03-11,20:48:05,300034012819300,71.0220,-123.9296,-4.4860,Actual,,Calculated,245.6400,Calculated,1,8
BaySys,Amundsen,2008-03-11,22:47:46,300034012819300,71.0205,-123.9284,-11.4756,Actual,,Calculated,71.5000,Calculated,1,9
BaySys,Amundsen,2008-03-12,00:48:05,300034012819300,71.0192,-123.9254,-11.7144,Actual,,Calculated,124.0700,Calculated,1,6
BaySys,Amundsen,2008-03-12,02:47:51,300034012819300,71.0186,-123.9226,26.4126,Actual,,Calculated,139.3500,Calculated,1,10
BaySys,Amundsen,2008-03-12,12:58:05,300034012819300,71.0166,-123.9118,-5.9819,Actual,,Calculated,293.2600,Calculated,1,11
BaySys,Amundsen,2008-03-12,18:58:05,300034012819300,71.0100,-123.8634,-2.2756,Actual,,Calculated,347.2300,Calculated,1,11
BaySys,Amundsen,2008-03-12,20:58:00,300034012819300,71.0076,-123.8414,-4.1325,Actual,,Calculated,233.2300,Calculated,1,7
BaySys,Amundsen,2008-03-12,22:57:50,300034012819300,71.0042,-123.8161,10.4361,Actual,,Calculated,112.3200,Calculated,1,9
BaySys,Amundsen,2008-03-13,00:57:52,300034012819300,70.9976,-123.7845,-4.2001,Actual,,Calculated,130.7100,Calculated,1,8
BaySys,Amundsen,2008-03-13,02:58:29,300034012819300,70.9887,-123.7532,-6.4591,Actual,,Calculated,144.5500,Calculated,1,11
BaySys,Amundsen,2008-03-13,13:07:49,300034012819300,70.9656,-123.6706,-12.0957,Actual,,Calculated,151.7000,Calculated,1,9
BaySys,Amundsen,2008-03-13,19:07:49,300034012819300,70.9493,-123.6366,-10.4065,Actual,,Calculated,141.6000,Calculated,1,11
BaySys,Amundsen,2008-03-13,21:07:44,300034012819300,70.9450,-123.6350,-11.5559,Actual,,Calculated,191.9200,Calculated,1,12
BaySys,Amundsen,2008-03-13,23:07:51,300034012819300,70.9397,-123.6335,-3.8556,Actual,,Calculated,136.2800,Calculated,1,8
BaySys,Amundsen,2008-03-14,11:18:06,300034012819300,70.9138,-123.5630,5.6690,Actual,,Calculated,123.3800,Calculated,1,11
BaySys,Amundsen,2008-03-14,13:27:29,300034012819300,70.9046,-123.5422,-3.2135,Actual,,Calculated,151.7700,Calculated,1,11
BaySys,Amundsen,2008-03-14,15:27:47,300034012819300,70.9007,-123.5265,13.9061,Actual,,Calculated,148.9600,Calculated,1,10
BaySys,Amundsen,2008-03-14,17:27:46,300034012819300,70.8984,-123.5146,11.2844,Actual,,Calculated,81.6000,Calculated,1,9
BaySys,Amundsen,2008-03-14,19:28:15,300034012819300,70.8981,-123.5101,-5.9542,Actual,,Calculated,124.6200,Calculated,1,12
BaySys,Amundsen,2008-03-14,21:27:54,300034012819300,70.8981,-123.5101,-6.6933,Actual,,Calculated,338.7700,Calculated,1,13
BaySys,Amundsen,2008-03-14,23:28:30,300034012819300,70.8981,-123.5101,-9.9959,Actual,,Calculated,358.9000,Calculated,1,11
BaySys,Amundsen,2008-03-15,01:28:03,300034012819300,70.8981,-123.5102,13.2044,Actual,,Calculated,187.0300,Calculated,1,8
BaySys,Amundsen,2008-03-15,03:28:24,300034012819300,70.8981,-123.5102,1.5781,Actual,,Calculated,139.7100,Calculated,1,8
BaySys,Amundsen,2008-03-15,05:28:04,300034012819300,70.8981,-123.5105,6.4512,Actual,,Calculated,196.6700,Calculated,1,12
BaySys,Amundsen,2008-03-15,07:29:17,300034012819300,70.8981,-123.5102,-10.5452,Actual,,Calculated,51.0700,Calculated,1,11
BaySys,Amundsen,2008-03-15,09:39:06,300034012819300,70.8981,-123.5102,46.0505,Actual,,Calculated,285.3100,Calculated,1,8
BaySys,Amundsen,2008-03-15,13:39:21,300034012819300,70.8981,-123.5102,24.5991,Actual,,Calculated,121.3700,Calculated,1,10
BaySys,Amundsen,2008-03-15,15:39:48,300034012819300,70.8981,-123.5102,10.8230,Actual,,Calculated,27.1700,Calculated,1,13
BaySys,Amundsen,2008-03-15,17:39:28,300034012819300,70.8981,-123.5101,-3.7045,Actual,,Calculated,1.6600,Calculated,1,11
BaySys,Amundsen,2008-03-15,19:39:53,300034012819300,70.8981,-123.5100,-5.7686,Actual,,Calculated,258.3500,Calculated,1,10
BaySys,Amundsen,2008-03-15,21:39:32,300034012819300,70.8981,-123.5100,-8.6294,Actual,,Calculated,119.5600,Calculated,1,9
BaySys,Amundsen,2008-03-15,23:40:05,300034012819300,70.8981,-123.5101,-13.1228,Actual,,Calculated,262.4200,Calculated,1,11
BaySys,Amundsen,2008-03-16,01:40:00,300034012819300,70.8981,-123.5104,12.5524,Actual,,Calculated,68.5100,Calculated,1,10
BaySys,Amundsen,2008-03-16,03:39:44,300034012819300,70.8980,-123.5104,-4.3945,Actual,,Calculated,134.8200,Calculated,1,9
BaySys,Amundsen,2008-03-16,05:39:36,300034012819300,70.8981,-123.5101,-6.2744,Actual,,Calculated,102.3700,Calculated,1,11
BaySys,Amundsen,2008-03-16,15:49:27,300034012819300,70.8981,-123.5103,19.9167,Actual,,Calculated,202.9200,Calculated,1,8
BaySys,Amundsen,2008-03-16,17:49:59,300034012819300,70.8981,-123.5102,-2.0618,Actual,,Calculated,285.1600,Calculated,1,13
BaySys,Amundsen,2008-03-16,19:49:43,300034012819300,70.8981,-123.5102,-3.7690,Actual,,Calculated,325.4000,Calculated,1,7
BaySys,Amundsen,2008-03-16,21:49:35,300034012819300,70.8981,-123.5103,-17.3635,Actual,,Calculated,327.6800,Calculated,1,9
BaySys,Amundsen,2008-03-16,23:50:05,300034012819300,70.8981,-123.5103,-12.6379,Actual,,Calculated,261.3200,Calculated,1,11
BaySys,Amundsen,2008-03-17,01:50:05,300034012819300,70.8981,-123.5103,10.3121,Actual,,Calculated,211.6000,Calculated,1,8
BaySys,Amundsen,2008-03-17,11:49:38,300034012819300,70.8980,-123.5105,-16.2315,Actual,,Calculated,122.1400,Calculated,1,8
BaySys,Amundsen,2008-03-17,13:50:06,300034012819300,70.8981,-123.5103,2.5586,Actual,,Calculated,112.3600,Calculated,1,8
BaySys,Amundsen,2008-03-17,17:50:18,300034012819300,70.8981,-123.5102,4.4845,Actual,,Calculated,179.0000,Calculated,1,13
BaySys,Amundsen,2008-03-17,19:49:52,300034012819300,70.8981,-123.5103,-2.9301,Actual,,Calculated,135.9600,Calculated,1,10
BaySys,Amundsen,2008-03-17,21:49:52,300034012819300,70.8980,-123.5103,-16.7511,Actual,,Calculated,246.3100,Calculated,1,9
BaySys,Amundsen,2008-03-17,23:49:58,300034012819300,70.8981,-123.5103,-0.4239,Actual,,Calculated,313.0200,Calculated,1,10
BaySys,Amundsen,2008-03-18,01:50:35,300034012819300,70.8980,-123.5102,-11.8520,Actual,,Calculated,282.7200,Calculated,1,8
BaySys,Amundsen,2008-03-18,03:59:51,300034012819300,70.8981,-123.5103,0.4044,Actual,,Calculated,39.3700,Calculated,1,12
BaySys,Amundsen,2008-03-18,16:05:52,300034012819300,70.8981,-123.5103,-6.1489,Actual,,Calculated,46.8900,Calculated,1,13
BaySys,Amundsen,2008-03-18,18:05:58,300034012819300,70.8979,-123.5101,-60.5609,Actual,,Calculated,3.0500,Calculated,1,11
BaySys,Amundsen,2008-03-18,20:06:35,300034012819300,70.8981,-123.5102,-3.4207,Actual,,Calculated,33.6200,Calculated,1,9
BaySys,Amundsen,2008-03-18,22:06:06,300034012819300,70.8981,-123.5102,-9.5170,Actual,,Calculated,356.8800,Calculated,1,7
BaySys,Amundsen,2008-03-19,00:06:35,300034012819300,70.8981,-123.5103,-5.3933,Actual,,Calculated,206.4400,Calculated,1,7
BaySys,Amundsen,2008-03-19,02:06:53,300034012819300,70.8981,-123.5102,13.3783,Actual,,Calculated,317.9300,Calculated,1,11
BaySys,Amundsen,2008-03-19,16:07:54,300034012819300,70.8981,-123.5102,29.0793,Actual,,Calculated,104.6800,Calculated,1,8
BaySys,Amundsen,2008-03-19,18:07:40,300034012819300,70.8981,-123.5100,-5.4736,Actual,,Calculated,61.1700,Calculated,1,13
BaySys,Amundsen,2008-03-19,20:08:05,300034012819300,70.8981,-123.5102,-1.9492,Actual,,Calculated,287.6300,Calculated,1,11
BaySys,Amundsen,2008-03-19,22:08:06,300034012819300,70.8980,-123.5102,-13.6301,Actual,,Calculated,7.3000,Calculated,1,6
BaySys,Amundsen,2008-03-20,00:08:29,300034012819300,70.8980,-123.5102,-8.6988,Actual,,Calculated,294.7000,Calculated,1,10
BaySys,Amundsen,2008-03-20,02:08:00,300034012819300,70.8981,-123.5102,12.6382,Actual,,Calculated,278.8200,Calculated,1,6
BaySys,Amundsen,2008-03-20,04:08:05,300034012819300,70.8981,-123.5102,0.9675,Actual,,Calculated,58.6200,Calculated,1,6
BaySys,Amundsen,2008-03-20,08:17:38,300034012819300,70.8981,-123.5101,-1.2846,Actual,,Calculated,295.1500,Calculated,1,10
BaySys,Amundsen,2008-03-20,16:17:43,300034012819300,70.8978,-123.5103,-17.8259,Actual,,Calculated,33.8100,Calculated,1,11
BaySys,Amundsen,2008-03-20,18:17:39,300034012819300,70.8980,-123.5103,-25.9727,Actual,,Calculated,166.2400,Calculated,1,11
BaySys,Amundsen,2008-03-20,20:18:05,300034012819300,70.8981,-123.5103,-9.1206,Actual,,Calculated,279.7600,Calculated,1,6
BaySys,Amundsen,2008-03-20,22:17:45,300034012819300,70.8981,-123.5102,-12.8230,Actual,,Calculated,258.2900,Calculated,1,8
BaySys,Amundsen,2008-03-21,00:17:45,300034012819300,70.8981,-123.5103,13.4399,Actual,,Calculated,307.3800,Calculated,1,9
BaySys,Amundsen,2008-03-21,02:18:29,300034012819300,70.8980,-123.5101,-8.3659,Actual,,Calculated,278.0900,Calculated,1,10
BaySys,Amundsen,2008-03-21,04:27:45,300034012819300,70.8980,-123.5101,-3.4270,Actual,,Calculated,132.4300,Calculated,1,8
BaySys,Amundsen,2008-03-21,16:28:55,300034012819300,70.8981,-123.5103,-8.1784,Actual,,Calculated,301.5600,Calculated,1,10
BaySys,Amundsen,2008-03-21,18:29:23,300034012819300,70.8981,-123.5104,-5.2964,Actual,,Calculated,260.8400,Calculated,1,13
BaySys,Amundsen,2008-03-21,20:28:59,300034012819300,70.8981,-123.5103,1.3237,Actual,,Calculated,152.9800,Calculated,1,11
BaySys,Amundsen,2008-03-21,22:29:35,300034012819300,70.8981,-123.5104,-0.6175,Actual,,Calculated,168.8400,Calculated,1,8
BaySys,Amundsen,2008-03-22,00:29:35,300034012819300,70.8981,-123.5104,-4.3365,Actual,,Calculated,346.3300,Calculated,1,10
BaySys,Amundsen,2008-03-22,02:29:35,300034012819300,70.8981,-123.5104,15.2875,Actual,,Calculated,296.4700,Calculated,1,9
BaySys,Amundsen,2008-03-22,04:38:54,300034012819300,70.8976,-123.5087,-60.7239,Actual,,Calculated,195.0400,Calculated,1,9
BaySys,Amundsen,2008-03-22,08:49:34,300034012819300,70.8981,-123.5103,1.9580,Actual,,Calculated,81.3700,Calculated,1,12
BaySys,Amundsen,2008-03-22,10:58:33,300034012819300,70.8975,-123.5098,-184.7320,Actual,,Calculated,111.6300,Calculated,1,8
BaySys,Amundsen,2008-03-22,15:08:23,300034012819300,70.8981,-123.5104,4.7350,Actual,,Calculated,299.4700,Calculated,1,9
BaySys,Amundsen,2008-03-22,17:08:59,300034012819300,70.8981,-123.5105,-2.7484,Actual,,Calculated,209.3700,Calculated,1,9
BaySys,Amundsen,2008-03-22,19:08:59,300034012819300,70.8981,-123.5107,4.0756,Actual,,Calculated,119.0000,Calculated,1,6
BaySys,Amundsen,2008-03-22,21:08:40,300034012819300,70.8981,-123.5104,6.0979,Actual,,Calculated,297.4400,Calculated,1,6
BaySys,Amundsen,2008-03-22,23:08:59,300034012819300,70.8981,-123.5105,-5.1993,Actual,,Calculated,214.2600,Calculated,1,7
BaySys,Amundsen,2008-03-23,01:08:29,300034012819300,70.8981,-123.5107,-9.4695,Actual,,Calculated,195.3200,Calculated,1,7
BaySys,Amundsen,2008-03-23,03:10:59,300034012819300,70.8981,-123.5105,18.0409,Actual,,Calculated,144.4400,Calculated,1,7
BaySys,Amundsen,2008-03-23,07:20:07,300034012819300,70.8982,-123.5107,2.5338,Actual,,Calculated,279.3100,Calculated,1,6
BaySys,Amundsen,2008-03-23,15:30:29,300034012819300,70.8981,-123.5106,-22.0796,Actual,,Calculated,14.6200,Calculated,1,7
BaySys,Amundsen,2008-03-23,17:30:23,300034012819300,70.8981,-123.5107,-14.6890,Actual,,Calculated,131.4200,Calculated,1,6
BaySys,Amundsen,2008-03-23,19:30:37,300034012819300,70.8982,-123.5104,9.5141,Actual,,Calculated,187.6500,Calculated,1,5
BaySys,Amundsen,2008-03-23,21:30:32,300034012819300,70.8981,-123.5105,-5.8433,Actual,,Calculated,105.3100,Calculated,1,5
BaySys,Amundsen,2008-03-23,23:29:52,300034012819300,70.8981,-123.5106,-6.6229,Actual,,Calculated,205.6500,Calculated,1,8
BaySys,Amundsen,2008-03-24,01:30:29,300034012819300,70.8982,-123.5107,-9.6687,Actual,,Calculated,167.4700,Calculated,1,7
BaySys,Amundsen,2008-03-24,03:30:24,300034012819300,70.8981,-123.5106,1.6321,Actual,,Calculated,159.1600,Calculated,1,10
BaySys,Amundsen,2008-03-24,05:30:18,300034012819300,70.8981,-123.5106,-7.3250,Actual,,Calculated,201.5600,Calculated,1,6
BaySys,Amundsen,2008-03-24,07:30:01,300034012819300,70.8982,-123.5107,2.2504,Actual,,Calculated,205.8300,Calculated,1,6
BaySys,Amundsen,2008-03-24,09:30:29,300034012819300,70.8981,-123.5106,-0.1361,Actual,,Calculated,276.6100,Calculated,1,6
BaySys,Amundsen,2008-03-24,11:30:04,300034012819300,70.8981,-123.5106,4.8580,Actual,,Calculated,177.1300,Calculated,1,7
BaySys,Amundsen,2008-03-24,13:30:35,300034012819300,70.8981,-123.5107,-6.4678,Actual,,Calculated,134.3400,Calculated,1,6
BaySys,Amundsen,2008-03-24,15:30:35,300034012819300,70.8982,-123.5108,11.4085,Actual,,Calculated,134.3300,Calculated,1,8
BaySys,Amundsen,2008-03-24,17:30:29,300034012819300,70.8981,-123.5108,-19.2850,Actual,,Calculated,130.3100,Calculated,1,7
BaySys,Amundsen,2008-03-24,19:30:35,300034012819300,70.8981,-123.5105,-4.2829,Actual,,Calculated,338.3200,Calculated,1,5
BaySys,Amundsen,2008-03-24,21:30:16,300034012819300,70.8981,-123.5105,-1.6717,Actual,,Calculated,102.3300,Calculated,1,5
BaySys,Amundsen,2008-03-24,23:30:06,300034012819300,70.8981,-123.5107,-1.2367,Actual,,Calculated,166.4100,Calculated,1,6
BaySys,Amundsen,2008-03-25,01:30:35,300034012819300,70.8981,-123.5107,-4.3807,Actual,,Calculated,167.3200,Calculated,1,8
BaySys,Amundsen,2008-03-25,03:30:32,300034012819300,70.8981,-123.5106,9.4089,Actual,,Calculated,170.5000,Calculated,1,9
BaySys,Amundsen,2008-03-25,05:30:35,300034012819300,70.8982,-123.5106,-10.3159,Actual,,Calculated,218.6500,Calculated,1,5
BaySys,Amundsen,2008-03-25,07:45:04,300034012819300,70.8981,-123.5108,-16.1136,Actual,,Calculated,142.2800,Calculated,1,5
BaySys,Amundsen,2008-03-25,15:40:42,300034012819300,70.8982,-123.5108,-8.2855,Actual,,Calculated,142.5700,Calculated,1,7
BaySys,Amundsen,2008-03-25,17:41:06,300034012819300,70.8982,-123.5107,12.4393,Actual,,Calculated,180.5700,Calculated,1,5
BaySys,Amundsen,2008-03-25,19:41:29,300034012819300,70.8981,-123.5104,-6.5932,Actual,,Calculated,295.5400,Calculated,1,7
BaySys,Amundsen,2008-03-25,21:41:15,300034012819300,70.8981,-123.5105,-5.8631,Actual,,Calculated,123.9500,Calculated,1,6
BaySys,Amundsen,2008-03-25,23:41:42,300034012819300,70.8981,-123.5106,-7.3731,Actual,,Calculated,196.7500,Calculated,1,7
BaySys,Amundsen,2008-03-26,01:41:23,300034012819300,70.8981,-123.5106,-0.5217,Actual,,Calculated,160.2600,Calculated,1,8
BaySys,Amundsen,2008-03-26,03:41:27,300034012819300,70.8982,-123.5108,1.0618,Actual,,Calculated,131.8400,Calculated,1,6
BaySys,Amundsen,2008-03-26,07:49:05,300034012819300,70.8981,-123.5107,-13.9276,Actual,,Calculated,218.9300,Calculated,1,6
BaySys,Amundsen,2008-03-26,09:48:53,300034012819300,70.8982,-123.5109,-17.9204,Actual,,Calculated,232.1800,Calculated,1,6
BaySys,Amundsen,2008-03-26,11:58:20,300034012819300,70.8995,-123.5117,50.1249,Actual,,Calculated,158.6300,Calculated,1,7
BaySys,Amundsen,2008-03-26,14:10:03,300034012819300,70.8981,-123.5103,-2.1412,Actual,,Calculated,299.1500,Calculated,1,5
BaySys,Amundsen,2008-03-26,16:04:53,300034012819300,70.8981,-123.5099,28.1218,Actual,,Calculated,146.1200,Calculated,1,8
BaySys,Amundsen,2008-03-26,18:04:20,300034012819300,70.8981,-123.5101,-9.7080,Actual,,Calculated,302.4700,Calculated,1,6
BaySys,Amundsen,2008-03-26,20:04:41,300034012819300,70.8982,-123.5102,10.8633,Actual,,Calculated,196.4100,Calculated,1,10
BaySys,Amundsen,2008-03-26,20:04:41,300034012819300,70.8982,-123.5102,10.8633,Actual,,Calculated,196.4100,Calculated,1,10
BaySys,Amundsen,2008-03-26,22:04:59,300034012819300,70.8981,-123.5100,6.5276,Actual,,Calculated,99.7900,Calculated,1,6
BaySys,Amundsen,2008-03-27,00:04:40,300034012819300,70.8981,-123.5102,-37.3093,Actual,,Calculated,179.5400,Calculated,1,7
BaySys,Amundsen,2008-03-27,02:04:59,300034012819300,70.8981,-123.5102,-0.5872,Actual,,Calculated,0.8500,Calculated,1,7
BaySys,Amundsen,2008-03-27,04:05:05,300034012819300,70.8981,-123.5104,-0.9611,Actual,,Calculated,150.1300,Calculated,1,7
BaySys,Amundsen,2008-03-27,06:05:05,300034012819300,70.8981,-123.5103,-4.8746,Actual,,Calculated,162.3100,Calculated,1,6
BaySys,Amundsen,2008-03-27,08:05:05,300034012819300,70.8981,-123.5102,-12.9751,Actual,,Calculated,166.2700,Calculated,1,6
BaySys,Amundsen,2008-03-27,10:04:48,300034012819300,70.8981,-123.5103,-3.7906,Actual,,Calculated,341.2000,Calculated,1,7